Year,Month,Day,Hour,Minute,Value (Times are PST for temperature in C)
2017,11,16,00,00,6.90
2017,11,16,00,01,6.90
2017,11,16,00,02,6.90
2017,11,16,00,03,6.90
2017,11,16,00,04,6.90
2017,11,16,00,05,6.90
2017,11,16,00,06,6.90
2017,11,16,00,07,6.90
2017,11,16,00,08,6.90
2017,11,16,00,09,6.90
2017,11,16,00,10,6.90
2017,11,16,00,11,6.90
2017,11,16,00,12,6.90
2017,11,16,00,13,6.90
2017,11,16,00,14,6.90
2017,11,16,00,15,6.90
2017,11,16,00,16,6.90
2017,11,16,00,17,6.90
2017,11,16,00,18,6.90
2017,11,16,00,19,6.90
2017,11,16,00,20,6.90
2017,11,16,00,21,6.90
2017,11,16,00,22,6.90
2017,11,16,00,23,6.90
2017,11,16,00,24,6.90
2017,11,16,00,25,6.90
2017,11,16,00,26,6.90
2017,11,16,00,27,6.90
2017,11,16,00,28,6.90
2017,11,16,00,29,7.00
2017,11,16,00,30,7.00
2017,11,16,00,31,7.00
2017,11,16,00,32,7.00
2017,11,16,00,33,7.00
2017,11,16,00,34,7.00
2017,11,16,00,35,7.00
2017,11,16,00,36,7.00
2017,11,16,00,37,7.00
2017,11,16,00,38,7.00
2017,11,16,00,39,7.00
2017,11,16,00,40,7.00
2017,11,16,00,41,7.00
2017,11,16,00,42,7.10
2017,11,16,00,43,7.10
2017,11,16,00,44,7.10
2017,11,16,00,45,7.10
2017,11,16,00,46,7.00
2017,11,16,00,47,7.00
2017,11,16,00,48,7.10
2017,11,16,00,49,7.00
2017,11,16,00,50,7.00
2017,11,16,00,51,7.00
2017,11,16,00,52,7.00
2017,11,16,00,53,7.10
2017,11,16,00,54,7.10
2017,11,16,00,55,7.10
2017,11,16,00,56,7.10
2017,11,16,00,57,7.10
2017,11,16,00,58,7.00
2017,11,16,00,59,7.00
2017,11,16,01,00,7.00
2017,11,16,01,01,7.00
2017,11,16,01,02,7.00
2017,11,16,01,03,7.00
2017,11,16,01,04,7.00
2017,11,16,01,05,7.00
2017,11,16,01,06,7.00
2017,11,16,01,07,7.00
2017,11,16,01,08,7.00
2017,11,16,01,09,7.00
2017,11,16,01,10,7.00
2017,11,16,01,11,7.00
2017,11,16,01,12,6.90
2017,11,16,01,13,6.90
2017,11,16,01,14,6.90
2017,11,16,01,15,6.90
2017,11,16,01,16,7.00
2017,11,16,01,17,6.90
2017,11,16,01,18,7.00
2017,11,16,01,19,7.00
2017,11,16,01,20,6.90
2017,11,16,01,21,7.00
2017,11,16,01,22,7.00
2017,11,16,01,23,6.90
2017,11,16,01,24,7.00
2017,11,16,01,25,7.00
2017,11,16,01,26,6.90
2017,11,16,01,27,7.00
2017,11,16,01,28,7.00
2017,11,16,01,29,7.00
2017,11,16,01,30,7.00
2017,11,16,01,31,7.00
2017,11,16,01,32,7.00
2017,11,16,01,33,7.00
2017,11,16,01,34,7.00
2017,11,16,01,35,7.00
2017,11,16,01,36,7.00
2017,11,16,01,37,7.00
2017,11,16,01,38,7.10
2017,11,16,01,39,7.10
2017,11,16,01,40,7.10
2017,11,16,01,41,7.10
2017,11,16,01,42,7.10
2017,11,16,01,43,7.10
2017,11,16,01,44,7.10
2017,11,16,01,45,7.10
2017,11,16,01,46,7.10
2017,11,16,01,47,7.10
2017,11,16,01,48,7.10
2017,11,16,01,49,7.10
2017,11,16,01,50,7.10
2017,11,16,01,51,7.10
2017,11,16,01,52,7.00
2017,11,16,01,53,7.00
2017,11,16,01,54,7.00
2017,11,16,01,55,7.00
2017,11,16,01,56,7.00
2017,11,16,01,57,7.00
2017,11,16,01,58,7.00
2017,11,16,01,59,7.00
2017,11,16,02,00,7.00
2017,11,16,02,01,7.00
2017,11,16,02,02,7.00
2017,11,16,02,03,7.00
2017,11,16,02,04,7.00
2017,11,16,02,05,7.00
2017,11,16,02,06,6.90
2017,11,16,02,07,6.90
2017,11,16,02,08,6.90
2017,11,16,02,09,6.90
2017,11,16,02,10,6.90
2017,11,16,02,11,6.90
2017,11,16,02,12,6.90
2017,11,16,02,13,6.90
2017,11,16,02,14,6.90
2017,11,16,02,15,6.90
2017,11,16,02,16,6.90
2017,11,16,02,17,6.90
2017,11,16,02,18,6.90
2017,11,16,02,19,6.90
2017,11,16,02,20,7.00
2017,11,16,02,21,7.00
2017,11,16,02,22,7.00
2017,11,16,02,23,7.00
2017,11,16,02,24,7.10
2017,11,16,02,25,7.10
2017,11,16,02,26,7.10
2017,11,16,02,27,7.10
2017,11,16,02,28,7.10
2017,11,16,02,29,7.10
2017,11,16,02,30,7.10
2017,11,16,02,31,7.10
2017,11,16,02,32,7.10
2017,11,16,02,33,7.10
2017,11,16,02,34,7.20
2017,11,16,02,35,7.20
2017,11,16,02,36,7.20
2017,11,16,02,37,7.20
2017,11,16,02,38,7.20
2017,11,16,02,39,7.20
2017,11,16,02,40,7.20
2017,11,16,02,41,7.20
2017,11,16,02,42,7.20
2017,11,16,02,43,7.20
2017,11,16,02,44,7.20
2017,11,16,02,45,7.20
2017,11,16,02,46,7.20
2017,11,16,02,47,7.30
2017,11,16,02,48,7.30
2017,11,16,02,49,7.30
2017,11,16,02,50,7.30
2017,11,16,02,51,7.30
2017,11,16,02,52,7.30
2017,11,16,02,53,7.30
2017,11,16,02,54,7.30
2017,11,16,02,55,7.30
2017,11,16,02,56,7.30
2017,11,16,02,57,7.30
2017,11,16,02,58,7.30
2017,11,16,02,59,7.30
2017,11,16,03,00,7.30
2017,11,16,03,01,7.30
2017,11,16,03,02,7.30
2017,11,16,03,03,7.30
2017,11,16,03,04,7.30
2017,11,16,03,05,7.30
2017,11,16,03,06,7.30
2017,11,16,03,07,7.30
2017,11,16,03,08,7.30
2017,11,16,03,09,7.30
2017,11,16,03,10,7.30
2017,11,16,03,11,7.30
2017,11,16,03,12,7.30
2017,11,16,03,13,7.30
2017,11,16,03,14,7.30
2017,11,16,03,15,7.30
2017,11,16,03,16,7.20
2017,11,16,03,17,7.20
2017,11,16,03,18,7.20
2017,11,16,03,19,7.20
2017,11,16,03,20,7.20
2017,11,16,03,21,7.20
2017,11,16,03,22,7.20
2017,11,16,03,23,7.20
2017,11,16,03,24,7.20
2017,11,16,03,25,7.20
2017,11,16,03,26,7.10
2017,11,16,03,27,7.10
2017,11,16,03,28,7.10
2017,11,16,03,29,7.10
2017,11,16,03,30,7.10
2017,11,16,03,31,7.10
2017,11,16,03,32,7.10
2017,11,16,03,33,7.10
2017,11,16,03,34,7.10
2017,11,16,03,35,7.10
2017,11,16,03,36,7.10
2017,11,16,03,37,7.10
2017,11,16,03,38,7.10
2017,11,16,03,39,7.00
2017,11,16,03,40,7.00
2017,11,16,03,41,6.90
2017,11,16,03,42,6.90
2017,11,16,03,43,6.90
2017,11,16,03,44,6.90
2017,11,16,03,45,6.90
2017,11,16,03,46,6.80
2017,11,16,03,47,6.80
2017,11,16,03,48,6.80
2017,11,16,03,49,6.80
2017,11,16,03,50,6.80
2017,11,16,03,51,6.80
2017,11,16,03,52,6.80
2017,11,16,03,53,6.70
2017,11,16,03,54,6.70
2017,11,16,03,55,6.70
2017,11,16,03,56,6.70
2017,11,16,03,57,6.60
2017,11,16,03,58,6.60
2017,11,16,03,59,6.60
2017,11,16,04,00,6.60
2017,11,16,04,01,6.60
2017,11,16,04,02,6.50
2017,11,16,04,03,6.50
2017,11,16,04,04,6.50
2017,11,16,04,05,6.40
2017,11,16,04,06,6.40
2017,11,16,04,07,6.40
2017,11,16,04,08,6.30
2017,11,16,04,09,6.30
2017,11,16,04,10,6.30
2017,11,16,04,11,6.30
2017,11,16,04,12,6.30
2017,11,16,04,13,6.30
2017,11,16,04,14,6.20
2017,11,16,04,15,6.20
2017,11,16,04,16,6.20
2017,11,16,04,17,6.20
2017,11,16,04,18,6.10
2017,11,16,04,19,6.10
2017,11,16,04,20,6.10
2017,11,16,04,21,6.10
2017,11,16,04,22,6.10
2017,11,16,04,23,6.10
2017,11,16,04,24,6.10
2017,11,16,04,25,6.10
2017,11,16,04,26,6.10
2017,11,16,04,27,6.10
2017,11,16,04,28,6.10
2017,11,16,04,29,6.10
2017,11,16,04,30,6.10
2017,11,16,04,31,6.10
2017,11,16,04,32,6.10
2017,11,16,04,33,6.10
2017,11,16,04,34,6.10
2017,11,16,04,35,6.10
2017,11,16,04,36,6.10
2017,11,16,04,37,6.10
2017,11,16,04,38,6.00
2017,11,16,04,39,6.00
2017,11,16,04,40,6.00
2017,11,16,04,41,6.00
2017,11,16,04,42,6.00
2017,11,16,04,43,6.00
2017,11,16,04,44,6.00
2017,11,16,04,45,6.00
2017,11,16,04,46,6.00
2017,11,16,04,47,5.90
2017,11,16,04,48,5.90
2017,11,16,04,49,5.90
2017,11,16,04,50,5.90
2017,11,16,04,51,5.90
2017,11,16,04,52,5.90
2017,11,16,04,53,5.90
2017,11,16,04,54,5.90
2017,11,16,04,55,5.90
2017,11,16,04,56,5.90
2017,11,16,04,57,5.90
2017,11,16,04,58,5.90
2017,11,16,04,59,5.90
2017,11,16,05,00,5.90
2017,11,16,05,01,5.90
2017,11,16,05,02,5.90
2017,11,16,05,03,5.90
2017,11,16,05,04,5.90
2017,11,16,05,05,5.90
2017,11,16,05,06,5.90
2017,11,16,05,07,5.90
2017,11,16,05,08,5.90
2017,11,16,05,09,5.90
2017,11,16,05,10,6.00
2017,11,16,05,11,6.00
2017,11,16,05,12,5.90
2017,11,16,05,13,6.00
2017,11,16,05,14,6.00
2017,11,16,05,15,6.00
2017,11,16,05,16,6.00
2017,11,16,05,17,6.00
2017,11,16,05,18,6.00
2017,11,16,05,19,6.00
2017,11,16,05,20,6.00
2017,11,16,05,21,6.00
2017,11,16,05,22,6.00
2017,11,16,05,23,6.00
2017,11,16,05,24,6.10
2017,11,16,05,25,6.10
2017,11,16,05,26,6.20
2017,11,16,05,27,6.20
2017,11,16,05,28,6.20
2017,11,16,05,29,6.10
2017,11,16,05,30,6.20
2017,11,16,05,31,6.10
2017,11,16,05,32,6.10
2017,11,16,05,33,6.10
2017,11,16,05,34,6.10
2017,11,16,05,35,6.10
2017,11,16,05,36,6.00
2017,11,16,05,37,6.00
2017,11,16,05,38,6.00
2017,11,16,05,39,6.00
2017,11,16,05,40,5.90
2017,11,16,05,41,5.90
2017,11,16,05,42,5.90
2017,11,16,05,43,5.90
2017,11,16,05,44,5.90
2017,11,16,05,45,5.90
2017,11,16,05,46,5.90
2017,11,16,05,47,5.90
2017,11,16,05,48,5.80
2017,11,16,05,49,5.80
2017,11,16,05,50,5.80
2017,11,16,05,51,5.70
2017,11,16,05,52,5.70
2017,11,16,05,53,5.70
2017,11,16,05,54,5.70
2017,11,16,05,55,5.60
2017,11,16,05,56,5.60
2017,11,16,05,57,5.60
2017,11,16,05,58,5.60
2017,11,16,05,59,5.60
2017,11,16,06,00,5.60
2017,11,16,06,01,5.60
2017,11,16,06,02,5.60
2017,11,16,06,03,5.60
2017,11,16,06,04,5.70
2017,11,16,06,05,5.70
2017,11,16,06,06,5.60
2017,11,16,06,07,5.70
2017,11,16,06,08,5.70
2017,11,16,06,09,5.70
2017,11,16,06,10,5.70
2017,11,16,06,11,5.70
2017,11,16,06,12,5.70
2017,11,16,06,13,5.70
2017,11,16,06,14,5.70
2017,11,16,06,15,5.70
2017,11,16,06,16,5.70
2017,11,16,06,17,5.70
2017,11,16,06,18,5.70
2017,11,16,06,19,5.70
2017,11,16,06,20,5.70
2017,11,16,06,21,5.70
2017,11,16,06,22,5.70
2017,11,16,06,23,5.70
2017,11,16,06,24,5.70
2017,11,16,06,25,5.70
2017,11,16,06,26,5.60
2017,11,16,06,27,5.60
2017,11,16,06,28,5.60
2017,11,16,06,29,5.60
2017,11,16,06,30,5.50
2017,11,16,06,31,5.50
2017,11,16,06,32,5.40
2017,11,16,06,33,5.40
2017,11,16,06,34,5.40
2017,11,16,06,35,5.30
2017,11,16,06,36,5.30
2017,11,16,06,37,5.30
2017,11,16,06,38,5.30
2017,11,16,06,39,5.30
2017,11,16,06,40,5.30
2017,11,16,06,41,5.20
2017,11,16,06,42,5.20
2017,11,16,06,43,5.20
2017,11,16,06,44,5.20
2017,11,16,06,45,5.20
2017,11,16,06,46,5.20
2017,11,16,06,47,5.10
2017,11,16,06,48,5.10
2017,11,16,06,49,5.10
2017,11,16,06,50,5.10
2017,11,16,06,51,5.10
2017,11,16,06,52,5.10
2017,11,16,06,53,5.10
2017,11,16,06,54,5.10
2017,11,16,06,55,5.00
2017,11,16,06,56,5.00
2017,11,16,06,57,5.00
2017,11,16,06,58,5.00
2017,11,16,06,59,5.00
2017,11,16,07,00,5.00
2017,11,16,07,01,5.00
2017,11,16,07,02,5.00
2017,11,16,07,03,4.90
2017,11,16,07,04,4.90
2017,11,16,07,05,4.90
2017,11,16,07,06,5.00
2017,11,16,07,07,4.90
2017,11,16,07,08,5.00
2017,11,16,07,09,5.00
2017,11,16,07,10,5.00
2017,11,16,07,11,5.00
2017,11,16,07,12,5.00
2017,11,16,07,13,5.00
2017,11,16,07,14,5.00
2017,11,16,07,15,5.00
2017,11,16,07,16,5.00
2017,11,16,07,17,5.00
2017,11,16,07,18,5.00
2017,11,16,07,19,5.00
2017,11,16,07,20,5.00
2017,11,16,07,21,5.00
2017,11,16,07,22,5.00
2017,11,16,07,23,5.00
2017,11,16,07,24,5.00
2017,11,16,07,25,5.00
2017,11,16,07,26,5.00
2017,11,16,07,27,5.00
2017,11,16,07,28,5.00
2017,11,16,07,29,5.00
2017,11,16,07,30,5.00
2017,11,16,07,31,5.00
2017,11,16,07,32,5.00
2017,11,16,07,33,5.00
2017,11,16,07,34,5.00
2017,11,16,07,35,5.00
2017,11,16,07,36,5.00
2017,11,16,07,37,5.00
2017,11,16,07,38,5.00
2017,11,16,07,39,5.00
2017,11,16,07,40,5.10
2017,11,16,07,41,5.10
2017,11,16,07,42,5.10
2017,11,16,07,43,5.10
2017,11,16,07,44,5.10
2017,11,16,07,45,5.10
2017,11,16,07,46,5.10
2017,11,16,07,47,5.10
2017,11,16,07,48,5.10
2017,11,16,07,49,5.10
2017,11,16,07,50,5.10
2017,11,16,07,51,5.10
2017,11,16,07,52,5.10
2017,11,16,07,53,5.10
2017,11,16,07,54,5.10
2017,11,16,07,55,5.10
2017,11,16,07,56,5.10
2017,11,16,07,57,5.10
2017,11,16,07,58,5.10
2017,11,16,07,59,5.10
2017,11,16,08,00,5.10
2017,11,16,08,01,5.10
2017,11,16,08,02,5.10
2017,11,16,08,03,5.10
2017,11,16,08,04,5.10
2017,11,16,08,05,5.00
2017,11,16,08,06,5.00
2017,11,16,08,07,5.00
2017,11,16,08,08,5.00
2017,11,16,08,09,5.00
2017,11,16,08,10,5.00
2017,11,16,08,11,5.00
2017,11,16,08,12,5.00
2017,11,16,08,13,5.00
2017,11,16,08,14,5.00
2017,11,16,08,15,5.00
2017,11,16,08,16,4.90
2017,11,16,08,17,4.90
2017,11,16,08,18,4.90
2017,11,16,08,19,4.90
2017,11,16,08,20,4.90
2017,11,16,08,21,4.90
2017,11,16,08,22,4.90
2017,11,16,08,23,4.90
2017,11,16,08,24,4.80
2017,11,16,08,25,4.80
2017,11,16,08,26,4.80
2017,11,16,08,27,4.80
2017,11,16,08,28,4.80
2017,11,16,08,29,4.80
2017,11,16,08,30,4.80
2017,11,16,08,31,4.80
2017,11,16,08,32,4.80
2017,11,16,08,33,4.80
2017,11,16,08,34,4.80
2017,11,16,08,35,4.80
2017,11,16,08,36,4.80
2017,11,16,08,37,4.80
2017,11,16,08,38,4.80
2017,11,16,08,39,4.80
2017,11,16,08,40,4.80
2017,11,16,08,41,4.80
2017,11,16,08,42,4.80
2017,11,16,08,43,4.80
2017,11,16,08,44,4.80
2017,11,16,08,45,4.90
2017,11,16,08,46,4.90
2017,11,16,08,47,4.90
2017,11,16,08,48,4.90
2017,11,16,08,49,4.90
2017,11,16,08,50,4.90
2017,11,16,08,51,4.90
2017,11,16,08,52,4.90
2017,11,16,08,53,4.90
2017,11,16,08,54,4.90
2017,11,16,08,55,4.90
2017,11,16,08,56,5.00
2017,11,16,08,57,5.00
2017,11,16,08,58,5.00
2017,11,16,08,59,5.00
2017,11,16,09,00,5.00
2017,11,16,09,01,5.00
2017,11,16,09,02,5.10
2017,11,16,09,03,5.10
2017,11,16,09,04,5.10
2017,11,16,09,05,5.10
2017,11,16,09,06,5.10
2017,11,16,09,07,5.10
2017,11,16,09,08,5.10
2017,11,16,09,09,5.10
2017,11,16,09,10,5.20
2017,11,16,09,11,5.20
2017,11,16,09,12,5.20
2017,11,16,09,13,5.20
2017,11,16,09,14,5.20
2017,11,16,09,15,5.20
2017,11,16,09,16,5.20
2017,11,16,09,17,5.20
2017,11,16,09,18,5.20
2017,11,16,09,19,5.30
2017,11,16,09,20,5.30
2017,11,16,09,21,5.30
2017,11,16,09,22,5.30
2017,11,16,09,23,5.30
2017,11,16,09,24,5.30
2017,11,16,09,25,5.30
2017,11,16,09,26,5.30
2017,11,16,09,27,5.30
2017,11,16,09,28,5.40
2017,11,16,09,29,5.40
2017,11,16,09,30,5.40
2017,11,16,09,31,5.40
2017,11,16,09,32,5.40
2017,11,16,09,33,5.40
2017,11,16,09,34,5.50
2017,11,16,09,35,5.50
2017,11,16,09,36,5.60
2017,11,16,09,37,5.70
2017,11,16,09,38,5.80
2017,11,16,09,39,5.90
2017,11,16,09,40,6.00
2017,11,16,09,41,6.10
2017,11,16,09,42,6.10
2017,11,16,09,43,6.20
2017,11,16,09,44,6.30
2017,11,16,09,45,6.30
2017,11,16,09,46,6.40
2017,11,16,09,47,6.50
2017,11,16,09,48,6.50
2017,11,16,09,49,6.60
2017,11,16,09,50,6.60
2017,11,16,09,51,6.60
2017,11,16,09,52,6.70
2017,11,16,09,53,6.70
2017,11,16,09,54,6.80
2017,11,16,09,55,6.80
2017,11,16,09,56,6.80
2017,11,16,09,57,6.80
2017,11,16,09,58,6.90
2017,11,16,09,59,6.90
2017,11,16,10,00,6.90
2017,11,16,10,01,7.00
2017,11,16,10,02,7.00
2017,11,16,10,03,7.00
2017,11,16,10,04,7.00
2017,11,16,10,05,7.10
2017,11,16,10,06,7.10
2017,11,16,10,07,7.10
2017,11,16,10,08,7.10
2017,11,16,10,09,7.10
2017,11,16,10,10,7.10
2017,11,16,10,11,7.10
2017,11,16,10,12,7.10
2017,11,16,10,13,7.20
2017,11,16,10,14,7.20
2017,11,16,10,15,7.20
2017,11,16,10,16,7.20
2017,11,16,10,17,7.20
2017,11,16,10,18,7.20
2017,11,16,10,19,7.20
2017,11,16,10,20,7.20
2017,11,16,10,21,7.20
2017,11,16,10,22,7.20
2017,11,16,10,23,7.20
2017,11,16,10,24,7.20
2017,11,16,10,25,7.30
2017,11,16,10,26,7.30
2017,11,16,10,27,7.30
2017,11,16,10,28,7.30
2017,11,16,10,29,7.30
2017,11,16,10,30,7.30
2017,11,16,10,31,7.30
2017,11,16,10,32,7.30
2017,11,16,10,33,7.30
2017,11,16,10,34,7.30
2017,11,16,10,35,7.30
2017,11,16,10,36,7.30
2017,11,16,10,37,7.30
2017,11,16,10,38,7.40
2017,11,16,10,39,7.40
2017,11,16,10,40,7.40
2017,11,16,10,41,7.40
2017,11,16,10,42,7.40
2017,11,16,10,43,7.40
2017,11,16,10,44,7.50
2017,11,16,10,45,7.50
2017,11,16,10,46,7.50
2017,11,16,10,47,7.60
2017,11,16,10,48,7.60
2017,11,16,10,49,7.60
2017,11,16,10,50,7.60
2017,11,16,10,51,7.60
2017,11,16,10,52,7.60
2017,11,16,10,53,7.60
2017,11,16,10,54,7.60
2017,11,16,10,55,7.60
2017,11,16,10,56,7.60
2017,11,16,10,57,7.60
2017,11,16,10,58,7.60
2017,11,16,10,59,7.60
2017,11,16,11,00,7.60
2017,11,16,11,01,7.60
2017,11,16,11,02,7.60
2017,11,16,11,03,7.60
2017,11,16,11,04,7.60
2017,11,16,11,05,7.60
2017,11,16,11,06,7.60
2017,11,16,11,07,7.60
2017,11,16,11,08,7.60
2017,11,16,11,09,7.60
2017,11,16,11,10,7.70
2017,11,16,11,11,7.70
2017,11,16,11,12,7.70
2017,11,16,11,13,7.60
2017,11,16,11,14,7.60
2017,11,16,11,15,7.60
2017,11,16,11,16,7.60
2017,11,16,11,17,7.60
2017,11,16,11,18,7.60
2017,11,16,11,19,7.60
2017,11,16,11,20,7.70
2017,11,16,11,21,7.60
2017,11,16,11,22,7.60
2017,11,16,11,23,7.60
2017,11,16,11,24,7.60
2017,11,16,11,25,7.70
2017,11,16,11,26,7.70
2017,11,16,11,27,7.70
2017,11,16,11,28,7.70
2017,11,16,11,29,7.70
2017,11,16,11,30,7.60
2017,11,16,11,31,7.70
2017,11,16,11,32,7.70
2017,11,16,11,33,7.70
2017,11,16,11,34,7.70
2017,11,16,11,35,7.70
2017,11,16,11,36,7.70
2017,11,16,11,37,7.70
2017,11,16,11,38,7.70
2017,11,16,11,39,7.70
2017,11,16,11,40,7.70
2017,11,16,11,41,7.70
2017,11,16,11,42,7.70
2017,11,16,11,43,7.70
2017,11,16,11,44,7.70
2017,11,16,11,45,7.70
2017,11,16,11,46,7.70
2017,11,16,11,47,7.70
2017,11,16,11,48,7.70
2017,11,16,11,49,7.70
2017,11,16,11,50,7.70
2017,11,16,11,51,7.70
2017,11,16,11,52,7.70
2017,11,16,11,53,7.70
2017,11,16,11,54,7.70
2017,11,16,11,55,7.70
2017,11,16,11,56,7.70
2017,11,16,11,57,7.70
2017,11,16,11,58,7.80
2017,11,16,11,59,7.80
2017,11,16,12,00,7.80
2017,11,16,12,01,7.80
2017,11,16,12,02,7.80
2017,11,16,12,03,7.80
2017,11,16,12,04,7.80
2017,11,16,12,05,7.80
2017,11,16,12,06,7.80
2017,11,16,12,07,7.80
2017,11,16,12,08,7.80
2017,11,16,12,09,7.80
2017,11,16,12,10,7.80
2017,11,16,12,11,7.80
2017,11,16,12,12,7.80
2017,11,16,12,13,7.80
2017,11,16,12,14,7.80
2017,11,16,12,15,7.80
2017,11,16,12,16,7.80
2017,11,16,12,17,7.80
2017,11,16,12,18,7.80
2017,11,16,12,19,7.80
2017,11,16,12,20,7.80
2017,11,16,12,21,7.80
2017,11,16,12,22,7.80
2017,11,16,12,23,7.80
2017,11,16,12,24,7.80
2017,11,16,12,25,7.80
2017,11,16,12,26,7.80
2017,11,16,12,27,7.80
2017,11,16,12,28,7.80
2017,11,16,12,29,7.80
2017,11,16,12,30,7.80
2017,11,16,12,31,7.80
2017,11,16,12,32,7.80
2017,11,16,12,33,7.80
2017,11,16,12,34,7.80
2017,11,16,12,35,7.80
2017,11,16,12,36,7.80
2017,11,16,12,37,7.80
2017,11,16,12,38,7.80
2017,11,16,12,39,7.80
2017,11,16,12,40,7.90
2017,11,16,12,41,7.90
2017,11,16,12,42,7.90
2017,11,16,12,43,7.90
2017,11,16,12,44,7.90
2017,11,16,12,45,7.90
2017,11,16,12,46,7.90
2017,11,16,12,47,7.90
2017,11,16,12,48,7.90
2017,11,16,12,49,7.90
2017,11,16,12,50,7.90
2017,11,16,12,51,7.90
2017,11,16,12,52,7.90
2017,11,16,12,53,7.90
2017,11,16,12,54,7.90
2017,11,16,12,55,7.90
2017,11,16,12,56,7.90
2017,11,16,12,57,7.90
2017,11,16,12,58,7.90
2017,11,16,12,59,7.90
2017,11,16,13,00,7.90
2017,11,16,13,01,7.90
2017,11,16,13,02,7.90
2017,11,16,13,03,7.90
2017,11,16,13,04,7.90
2017,11,16,13,05,7.90
2017,11,16,13,06,7.90
2017,11,16,13,07,8.00
2017,11,16,13,08,8.00
2017,11,16,13,09,8.00
2017,11,16,13,10,8.00
2017,11,16,13,11,8.00
2017,11,16,13,12,8.00
2017,11,16,13,13,8.00
2017,11,16,13,14,8.10
2017,11,16,13,15,8.10
2017,11,16,13,16,8.10
2017,11,16,13,17,8.10
2017,11,16,13,18,8.10
2017,11,16,13,19,8.20
2017,11,16,13,20,8.20
2017,11,16,13,21,8.20
2017,11,16,13,22,8.20
2017,11,16,13,23,8.20
2017,11,16,13,24,8.30
2017,11,16,13,25,8.30
2017,11,16,13,26,8.30
2017,11,16,13,27,8.30
2017,11,16,13,28,8.40
2017,11,16,13,29,8.40
2017,11,16,13,30,8.40
2017,11,16,13,31,8.50
2017,11,16,13,32,8.50
2017,11,16,13,33,8.50
2017,11,16,13,34,8.50
2017,11,16,13,35,8.60
2017,11,16,13,36,8.60
2017,11,16,13,37,8.60
2017,11,16,13,38,8.60
2017,11,16,13,39,8.60
2017,11,16,13,40,8.60
2017,11,16,13,41,8.60
2017,11,16,13,42,8.60
2017,11,16,13,43,8.60
2017,11,16,13,44,8.60
2017,11,16,13,45,8.70
2017,11,16,13,46,8.70
2017,11,16,13,47,8.70
2017,11,16,13,48,8.70
2017,11,16,13,49,8.70
2017,11,16,13,50,8.70
2017,11,16,13,51,8.70
2017,11,16,13,52,8.70
2017,11,16,13,53,8.70
2017,11,16,13,54,8.70
2017,11,16,13,55,8.70
2017,11,16,13,56,8.70
2017,11,16,13,57,8.70
2017,11,16,13,58,8.70
2017,11,16,13,59,8.70
2017,11,16,14,00,8.70
2017,11,16,14,01,8.70
2017,11,16,14,02,8.70
2017,11,16,14,03,8.60
2017,11,16,14,04,8.60
2017,11,16,14,05,8.60
2017,11,16,14,06,8.60
2017,11,16,14,07,8.60
2017,11,16,14,08,8.60
2017,11,16,14,09,8.60
2017,11,16,14,10,8.60
2017,11,16,14,11,8.60
2017,11,16,14,12,8.60
2017,11,16,14,13,8.60
2017,11,16,14,14,8.60
2017,11,16,14,15,8.60
2017,11,16,14,16,8.60
2017,11,16,14,17,8.60
2017,11,16,14,18,8.60
2017,11,16,14,19,8.70
2017,11,16,14,20,8.70
2017,11,16,14,21,8.70
2017,11,16,14,22,8.70
2017,11,16,14,23,8.70
2017,11,16,14,24,8.80
2017,11,16,14,25,8.80
2017,11,16,14,26,8.80
2017,11,16,14,27,8.80
2017,11,16,14,28,8.80
2017,11,16,14,29,8.80
2017,11,16,14,30,8.90
2017,11,16,14,31,8.90
2017,11,16,14,32,9.00
2017,11,16,14,33,9.00
2017,11,16,14,34,9.10
2017,11,16,14,35,9.20
2017,11,16,14,36,9.20
2017,11,16,14,37,9.20
2017,11,16,14,38,9.20
2017,11,16,14,39,9.30
2017,11,16,14,40,9.30
2017,11,16,14,41,9.30
2017,11,16,14,42,9.40
2017,11,16,14,43,9.40
2017,11,16,14,44,9.40
2017,11,16,14,45,9.30
2017,11,16,14,46,9.30
2017,11,16,14,47,9.30
2017,11,16,14,48,9.20
2017,11,16,14,49,9.20
2017,11,16,14,50,9.10
2017,11,16,14,51,9.10
2017,11,16,14,52,9.00
2017,11,16,14,53,9.00
2017,11,16,14,54,9.00
2017,11,16,14,55,8.90
2017,11,16,14,56,8.90
2017,11,16,14,57,8.90
2017,11,16,14,58,8.90
2017,11,16,14,59,8.80
2017,11,16,15,00,8.80
2017,11,16,15,01,8.80
2017,11,16,15,02,8.80
2017,11,16,15,03,8.80
2017,11,16,15,04,8.80
2017,11,16,15,05,8.80
2017,11,16,15,06,8.80
2017,11,16,15,07,8.80
2017,11,16,15,08,8.80
2017,11,16,15,09,8.80
2017,11,16,15,10,8.80
2017,11,16,15,11,8.90
2017,11,16,15,12,8.90
2017,11,16,15,13,8.90
2017,11,16,15,14,8.90
2017,11,16,15,15,8.90
2017,11,16,15,16,8.90
2017,11,16,15,17,8.90
2017,11,16,15,18,8.90
2017,11,16,15,19,8.90
2017,11,16,15,20,8.90
2017,11,16,15,21,8.90
2017,11,16,15,22,8.90
2017,11,16,15,23,8.90
2017,11,16,15,24,8.90
2017,11,16,15,25,8.90
2017,11,16,15,26,8.90
2017,11,16,15,27,8.90
2017,11,16,15,28,8.90
2017,11,16,15,29,8.80
2017,11,16,15,30,8.80
2017,11,16,15,31,8.80
2017,11,16,15,32,8.80
2017,11,16,15,33,8.80
2017,11,16,15,34,8.80
2017,11,16,15,35,8.80
2017,11,16,15,36,8.70
2017,11,16,15,37,8.70
2017,11,16,15,38,8.70
2017,11,16,15,39,8.70
2017,11,16,15,40,8.70
2017,11,16,15,41,8.70
2017,11,16,15,42,8.70
2017,11,16,15,43,8.70
2017,11,16,15,44,8.70
2017,11,16,15,45,8.70
2017,11,16,15,46,8.70
2017,11,16,15,47,8.70
2017,11,16,15,48,8.70
2017,11,16,15,49,8.70
2017,11,16,15,50,8.70
2017,11,16,15,51,8.70
2017,11,16,15,52,8.70
2017,11,16,15,53,8.70
2017,11,16,15,54,8.70
2017,11,16,15,55,8.70
2017,11,16,15,56,8.70
2017,11,16,15,57,8.70
2017,11,16,15,58,8.70
2017,11,16,15,59,8.70
2017,11,16,16,00,8.70
2017,11,16,16,01,8.70
2017,11,16,16,02,8.70
2017,11,16,16,03,8.60
2017,11,16,16,04,8.60
2017,11,16,16,05,8.60
2017,11,16,16,06,8.60
2017,11,16,16,07,8.60
2017,11,16,16,08,8.60
2017,11,16,16,09,8.60
2017,11,16,16,10,8.60
2017,11,16,16,11,8.60
2017,11,16,16,12,8.60
2017,11,16,16,13,8.60
2017,11,16,16,14,8.60
2017,11,16,16,15,8.60
2017,11,16,16,16,8.60
2017,11,16,16,17,8.60
2017,11,16,16,18,8.60
2017,11,16,16,19,8.60
2017,11,16,16,20,8.60
2017,11,16,16,21,8.60
2017,11,16,16,22,8.60
2017,11,16,16,23,8.60
2017,11,16,16,24,8.60
2017,11,16,16,25,8.60
2017,11,16,16,26,8.60
2017,11,16,16,27,8.60
2017,11,16,16,28,8.50
2017,11,16,16,29,8.50
2017,11,16,16,30,8.50
2017,11,16,16,31,8.50
2017,11,16,16,32,8.50
2017,11,16,16,33,8.50
2017,11,16,16,34,8.50
2017,11,16,16,35,8.40
2017,11,16,16,36,8.40
2017,11,16,16,37,8.40
2017,11,16,16,38,8.40
2017,11,16,16,39,8.40
2017,11,16,16,40,8.40
2017,11,16,16,41,8.40
2017,11,16,16,42,8.40
2017,11,16,16,43,8.40
2017,11,16,16,44,8.40
2017,11,16,16,45,8.40
2017,11,16,16,46,8.40
2017,11,16,16,47,8.40
2017,11,16,16,48,8.40
2017,11,16,16,49,8.40
2017,11,16,16,50,8.40
2017,11,16,16,51,8.40
2017,11,16,16,52,8.30
2017,11,16,16,53,8.30
2017,11,16,16,54,8.30
2017,11,16,16,55,8.30
2017,11,16,16,56,8.30
2017,11,16,16,57,8.30
2017,11,16,16,58,8.30
2017,11,16,16,59,8.30
2017,11,16,17,00,8.30
2017,11,16,17,01,8.30
2017,11,16,17,02,8.30
2017,11,16,17,03,8.30
2017,11,16,17,04,8.30
2017,11,16,17,05,8.30
2017,11,16,17,06,8.30
2017,11,16,17,07,8.20
2017,11,16,17,08,8.20
2017,11,16,17,09,8.20
2017,11,16,17,10,8.20
2017,11,16,17,11,8.20
2017,11,16,17,12,8.20
2017,11,16,17,13,8.20
2017,11,16,17,14,8.20
2017,11,16,17,15,8.20
2017,11,16,17,16,8.20
2017,11,16,17,17,8.20
2017,11,16,17,18,8.20
2017,11,16,17,19,8.20
2017,11,16,17,20,8.20
2017,11,16,17,21,8.20
2017,11,16,17,22,8.20
2017,11,16,17,23,8.20
2017,11,16,17,24,8.30
2017,11,16,17,25,8.30
2017,11,16,17,26,8.30
2017,11,16,17,27,8.20
2017,11,16,17,28,8.20
2017,11,16,17,29,8.20
2017,11,16,17,30,8.20
2017,11,16,17,31,8.20
2017,11,16,17,32,8.20
2017,11,16,17,33,8.20
2017,11,16,17,34,8.20
2017,11,16,17,35,8.20
2017,11,16,17,36,8.20
2017,11,16,17,37,8.20
2017,11,16,17,38,8.20
2017,11,16,17,39,8.20
2017,11,16,17,40,8.20
2017,11,16,17,41,8.20
2017,11,16,17,42,8.20
2017,11,16,17,43,8.20
2017,11,16,17,44,8.10
2017,11,16,17,45,8.10
2017,11,16,17,46,8.00
2017,11,16,17,47,8.00
2017,11,16,17,48,7.90
2017,11,16,17,49,7.80
2017,11,16,17,50,7.70
2017,11,16,17,51,7.60
2017,11,16,17,52,7.40
2017,11,16,17,53,7.30
2017,11,16,17,54,7.20
2017,11,16,17,55,7.10
2017,11,16,17,56,7.00
2017,11,16,17,57,6.90
2017,11,16,17,58,6.90
2017,11,16,17,59,6.80
2017,11,16,18,00,6.80
2017,11,16,18,01,6.80
2017,11,16,18,02,6.80
2017,11,16,18,03,6.70
2017,11,16,18,04,6.70
2017,11,16,18,05,6.70
2017,11,16,18,06,6.60